Regional Weather Roundup
Issued by NWS

Home | Current Version | Previous Version | Text Only | Print | Product List | Glossary Off
Versions: 1 2 3 4 5 6 7 8 9 10 11 12 13 14 15 16 17 18 19 20 21 22 23 24 25 26 27 28 29 30 31 32 33 34 35 36 37 38 39 40 41 42 43 44 45 46 47 48 49 50

750
ASUS43 KMPX 180901
RWRMN
WEATHER ROUNDUP FOR MINNESOTA
NATIONAL WEATHER SERVICE TWIN CITIES/CHANHASSEN MN
300 AM CST WED JAN 18 2017


NOTE: "FAIR" INDICATES FEW OR NO CLOUDS BELOW 12,000 FEET WITH NO
SIGNIFICANT WEATHER AND/OR OBSTRUCTIONS TO VISIBILITY. N/A MEANS
CURRENT SKY AND/OR WEATHER CONDITIONS ARE NOT AVAILABLE.

MNZ060>063-068>070-181000-
   Twin Cities Metro

CITY           SKY/WX    TMP DP  RH WIND       PRES   REMARKS
TWIN CITIES    CLOUDY    28  24  85 S7        29.96F WCI  21
ST PAUL        CLEAR     28  26  92 S6        29.98S WCI  22
CRYSTAL        CLOUDY    28  22  78 S10       29.94S WCI  19
BLAINE         CLOUDY    28  28 100 S9        29.95S WCI  20
LAKEVILLE      CLOUDY    25  25 100 S6        29.97S WCI  18
EDEN PRAIRIE   CLOUDY    27  23  85 S12       29.95S WCI  17
SOUTH ST PAUL  CLOUDY    28  26  94 S5        29.97S WCI  23
LAKE ELMO      MOCLDY    30  28  93 S12       29.97S WCI  21
$$
MNZ001>005-007-008-013>017-022>024-027-028-181000-
   Northwest Minnesota

CITY           SKY/WX    TMP DP  RH WIND       PRES   REMARKS
BEMIDJI        CLOUDY    28  19  70 SW8       29.71S WCI  19
HALLOCK        CLOUDY    18  16  93 S12       29.63S WCI   5
ROSEAU         CLOUDY    23  18  80 S14       29.63R WCI  11
WARROAD        CLOUDY    23  18  80 SW10G17   29.63S WCI  12
THIEF RVR FALL CLOUDY    22  17  81 SW21      29.68S WCI   6
CROOKSTON      CLOUDY    21  18  86 S16       29.71R WCI   7
FOSSTON        CLOUDY    21  18  86 S15       29.73R WCI   8
DETROIT LAKES  CLOUDY    28  23  80 S10       29.77S WCI  19
MOORHEAD       CLOUDY    19  16  86 S14       29.77F WCI   6
PARK RAPIDS    CLOUDY    20  14  77 S7        29.76S WCI  11
MAHNOMEN       FAIR      25  21  84 S17       29.72F WCI  11
$$
MNZ006-009>011-018-025>026-181000-
   North Central Minnesota

CITY           SKY/WX    TMP DP  RH WIND       PRES   REMARKS
BAUDETTE       CLOUDY    25  17  72 SW9       29.64F WCI  15
FLAG ISLAND    CLOUDY    21  16  79 S8        29.62R WCI  12
INTL FALLS     PTCLDY    26  18  71 SW13      29.65F WCI  15
WASKISH        CLOUDY    28  19  69 SW6       29.67F WCI  22
BIG FORK       CLOUDY    27  19  74 SW16G22   29.70S WCI  14
LONGVILLE      CLOUDY    21  18  86 S8        29.77F WCI  12
GRAND RAPIDS   CLOUDY    21  17  84 S8        29.78F WCI  11
CRANE LAKE     CLOUDY    27  18  69 S5        29.70F WCI  21
ORR            CLOUDY    27  16  63 S7        29.67S WCI  19
COOK           CLOUDY    25  18  74 S8        29.71F WCI  16
WALKER         FAIR      25  18  76 SW13      29.74S WCI  13
$$
MNZ012-019>021-037-181000-
   Northeast Minnesota

CITY           SKY/WX    TMP DP  RH WIND       PRES   REMARKS
DULUTH         CLOUDY    25  23  92 SW14      29.79F WCI  13
ELY            CLOUDY    27  18  69 S13G20    29.71F WCI  16
HIBBING        CLOUDY    19  18  95 S5        29.75F WCI  12
EVELETH        CLOUDY    23  19  83 SW10      29.77F WCI  13
DULUTH HARBOR  CLOUDY    27  23  86 CALM      29.85F
TWO HARBORS    CLOUDY    25  19  80 W8        29.78F WCI  16
SILVER BAY     CLEAR     18  18 100 SW3       29.78F
GRAND MARAIS     N/A     28  23  81 W5        29.78F WCI  23
G MARAIS ARPRT CLEAR     19  16  86 S6        29.72F WCI  11
$$
MNZ029>031-032-039>041-046>048-054>057-064-181000-
   West Central Minnesota

CITY           SKY/WX    TMP DP  RH WIND       PRES   REMARKS
FERGUS FALLS   CLOUDY    21  19  93 S13       29.85S WCI   9
WHEATON        CLOUDY    30  28  93 S12       29.82F WCI  21
MORRIS         CLOUDY    16  16 100 SE12      29.83F WCI   3
ALEXANDRIA     CLOUDY    24  21  88 S14       29.83F WCI  12
ELBOW LAKE     FAIR      20  18  93 S14       29.82S WCI   7
WADENA         CLOUDY    25  19  80 SW8       29.79S WCI  16
GLENWOOD       CLOUDY    19  18  93 S9        29.85F WCI   9
APPLETON       CLOUDY    25  21  86 S9        29.87S WCI  15
ORTONVILLE     CLOUDY    27  25  93 CALM      29.84F
MADISON        CLOUDY    27  25  93 S6        29.88S WCI  20
WILLMAR        FAIR      18  16  93 CALM      29.91R
$$
MNZ033>034-036-042>043-049>051-058-059-181000-
   Central Minnesota

CITY           SKY/WX    TMP DP  RH WIND       PRES   REMARKS
ST CLOUD       CLOUDY    22  21  96 S8        29.89F WCI  12
SAUK CENTRE    FAIR      21  19  93 S9        29.86S WCI  10
PAYNESVILLE    CLOUDY    22  22 100 S6        29.89F WCI  14
AITKIN         CLOUDY    25  18  74 S8        29.81F WCI  16
PINE RIVER     CLOUDY    19  18  93 S7        29.83S FOG     WCI  10
BRAINERD       CLOUDY    22  18  85 S14       29.83F WCI   9
STAPLES        CLOUDY    19  18  93 S8        29.80F WCI   9
LONG PRAIRIE   FAIR      19  18  93 SE9       29.85F WCI   9
LITTLE FALLS   CLOUDY    18  16  93 SE6       29.87S WCI   9
LITCHFIELD     CLOUDY    23  21  93 CALM      29.91F
BUFFALO        CLOUDY    25  23  91 S6        29.94F WCI  18
MAPLE LAKE     CLOUDY    25  24  98 S6        29.92F WCI  18
HUTCHINSON     CLOUDY    22  21  96 CALM      29.94S
$$
MNZ037-044-045-052-053-181000-
   East Central Minnesota

CITY           SKY/WX    TMP DP  RH WIND       PRES   REMARKS
PRINCETON      CLOUDY    27  25  93 S8        29.90F WCI  18
MORA           CLOUDY    27  27 100 S9        29.91F WCI  17
CAMBRIDGE      CLOUDY    28  23  80 S8        29.91S WCI  20
RUSH CITY      CLOUDY    28  27  93 S8        29.92F FOG     WCI  20
MOOSE LAKE     CLOUDY    25  23  93 SW10      29.85F FOG     WCI  15
HINCKLEY       CLOUDY    28  28 100 S9        29.91S FOG     WCI  20
CLOQUET        CLOUDY    25  21  86 S10G17    29.82F WCI  15
MCGREGOR       CLEAR     23  21  93 S7        29.83F WCI  15
$$
MNZ071>073-080-081-089-090-097-098-181000-
   Southwest Minnesota

CITY           SKY/WX    TMP DP  RH WIND       PRES   REMARKS
MONTEVIDEO     CLOUDY    25  25 100 SW6       29.91S WCI  18
GRANITE FALLS  CLOUDY    23  21  92 S8        29.92S WCI  13
CANBY            N/A     33  27  79 CALM      29.89R
REDWOOD FALLS  CLOUDY    22  18  85 S8        29.92S WCI  12
OLIVIA         CLOUDY    21  19  93 S7        29.91R WCI  13
PIPESTONE      CLOUDY    28  27  93 SW16      29.89S WCI  17
WINDOM         CLOUDY    28  27  93 S10       29.93S WCI  19
WORTHINGTON    CLEAR     28  26  92 S15       29.94S WCI  16
JACKSON        CLOUDY    28  27  93 S10       29.96S WCI  19
TRACY          CLOUDY    32  28  86 SW28      29.88R WCI  18
SLAYTON        CLOUDY    27  26  96 S18       29.91S WCI  13
$$
MNZ065>067-074>077-082>085-091>093-181000-
   South Central Minnesota

CITY           SKY/WX    TMP DP  RH WIND       PRES   REMARKS
MANKATO        CLEAR     26  25  96 S10       29.97F FOG     WCI  16
NEW ULM        CLOUDY    25  21  86 S9        29.94S FOG     WCI  15
ST JAMES       CLOUDY    27  25  93 S13       29.96S WCI  16
FAIRMONT       CLOUDY    27  25  92 S15       29.99S WCI  15
GLENCOE        CLOUDY    25  25  99 S6        29.94S WCI  18
FARIBAULT      CLOUDY    27  27 100 S9        29.99  FOG     WCI  17
OWATONNA       CLOUDY    27  25  93 S12       29.99S FOG     WCI  16
WASECA         CLOUDY    28  27  93 S12       30.01S FOG     WCI  18
ALBERT LEA     CLOUDY    27  27 100 SW6       30.01S FOG     WCI  20
$$
MNZ078>079-086>088-094>096-181000-
   Southeast Minnesota

CITY           SKY/WX    TMP DP  RH WIND       PRES   REMARKS
ROCHESTER      CLOUDY    27  27 100 SW14      30.00F FOG     WCI  16
RED WING       CLOUDY    30  27  86 S7        29.99F WCI  23
STANTON        CLOUDY    28  26  89 S9        29.97F WCI  19
DODGE CENTER   CLOUDY    27  27 100 CALM      29.98F FOG
WINONA         CLOUDY    32  30  93 SW6       30.04S WCI  26
AUSTIN         CLOUDY    27  27 100 SW9       30.02S FOG     WCI  17
PRESTON        CLOUDY    27  26  96 SW13      30.02F FOG     WCI  17
$$
ABBREVIATIONS USED IN REMARKS
   TC - TEMPERATURES IN CELSIUS
  WCI - WIND CHILL INDEX
   HX - HEAT INDEX
  VSB - VISIBILITY
$$




USA.gov is the U.S. government's official web portal to all federal, state and local government web resources and services.